Погода в Верхнедвинске

Погода в Верхнедвинске : погода сейчас, прогноз погоды и архив. Всё, что Вы хотите узнать о погоде в Верхнедвинске!

Хотите узнать прогноз погоды в Верхнедвинске? Тогда Вам сюда: Погода в Верхнедвинске

Поиск расширенной информации на нашем сайте:

Полезная информация:

Другие новости

Новости СМИ2

Главная страница сайта

Новости сайта

03.07.2017

Напоминаем, что на нашем специализированном сайте Метеоцентр.Азия вы можете получить высокодетализированные автоматические прогнозы погоды по пунктам России, СНГ и мира в авиационном формате (включающие направление и скорость ветра, видимость, явления погоды, количество и форму облачности, нижнюю и верхнюю границу облачности).

Рекомендуем:

Погода в Верхнедвинске - сегодня

Время (UTC), дата Ветер
(°,м/с) 
Видим.   Явления Облачность Т
(°С)
Тd
(°С)
f(%) Тe
(°С)
Pmin
(гПа)
dP
(гПа)
Po
(мм)
O2
(г/м3)
Тmin Tmax R s Состояние
почвы
03 22.03.19 310 (СЗ) 5{10}  10 км  {дождь}  10/10 360 м 
[St]
+6.7 +6.3 97 +5  1015.9  0.3  750  294         
06 22.03.19 320 (СЗ) 8-14{14}  15000 м  {дождь}  8/1 600 м средняя, верхняя 
[Sc|Ac trans|Ci fib]
+5 -0.1 70 +2  1019.1  752  298  +4.8       
09 22.03.19 310 (СЗ) 9-15{16}  20000 м    1/1 600 м 
[Sc]
+5.4 -4.2 50 +2  1021.7  2.6  754  298           
12 22.03.19 320 (СЗ) 9-14{18}  20000 м    ясно 
+7.3 -6.1 38 +4  1022.7  1.1  755  297           
15 22.03.19 320 (СЗ) 8-16{17}  20000 м    1/1 600 м 
[Sc]
+7 -7.7 34 +4  1023.5  0.8  755  298           
18 22.03.19 320 (СЗ) 4{16}  20000 м    ясно 
+3.7 -5.5 51 +2  1026  2.2  757  302    +8.1       
21 22.03.19 300 (СЗ) 20000 м    ясно 
+0.5 -5.4 65 -1  1027.5  1.3  758  305           
00 23.03.19 290 (З) 20000 м    1/0 верхняя 
[Ci fib]
-0.7 -5.2 72 -3  1028  0.4  758  307           
03 23.03.19 310 (СЗ) 20000 м    1/0 верхняя 
[Ci fib]
-1.9 -4.3 84 -3  1028.6  0.5  759  308           
06 23.03.19 320 (СЗ) 20000 м    1/0 средняя 
[Ac trans]
-0.1 -3.7 77 +1  1028.7  0.3  759  306  -2.4         
09 23.03.19 270 (З) 20000 м    3/0 верхняя 
[Ci fib]
+4.7 -2.6 59 +4  1027.4  -1  758  301           
12 23.03.19 230 (ЮЗ) 20000 м    3/0 верхняя 
[Ci fib]
+8.9 -6.5 33 +8  1024.1  -3  756  296           
15 23.03.19 200 (Ю) 20000 м    6/0 верхняя 
[Ci fib]
+9.7 -6.8 31 +9  1020.9  -3.1  754  294           
18 23.03.19 200 (Ю) 15000 м    9/0 средняя 
[Ac trans]
+7.4 -5.4 40 +7  1018.6  -2.4  752  296    +10.3       
21 23.03.19 220 (ЮЗ) 15000 м    9/9 1080 м 
[Sc]
+7.3 -4.7 42 +6  1015.7  -2.9  750  295           
00 24.03.19 300 (СЗ) 4{10}  12000 м    6/3 600 м средняя 
[Sc|Ac trans]
+7.1 +3.1 76 +6  1014.1  -1.6  748  293           
03 24.03.19 260 (З) 10 км    ясно 
+3.1 +1.9 92 +2  1014.2  -0.1  748  298           
06 24.03.19 290 (З) 5-10{10}  10 км    6/5 600 м средняя 
[Sc|Ac trans]
+3.6 +1 83 +1  1014.5  0.3  749  298  +2.7         
09 24.03.19 290 (З) 6-11{11}  15000 м    3/3 300 м 
[St]
+6.2 -0.2 64 +4  1014.3  749  295           
12 24.03.19 280 (З) 6-11{13}  20000 м    3/3 600 м верхняя 
[Cu med, cong|Ci fib]
+7.7 -3.1 46 +6  1014  -0.2  748  294           
15 24.03.19 300 (СЗ) 6-11{13}  20000 м    10/1 600 м верхняя 
[Sc|Cs]
+7.3 -5.6 39 +5  1013.4  -0.6  748  294           
18 24.03.19 260 (З) 2{12}  10 км    4/0 средняя, верхняя 
[Ac trans|Ci fib]
+3.4 -5.9 51 +3  1013.7  748  298    +9.7       
21 24.03.19 240 (ЮЗ) 10 км    1/0 верхняя 
[Ci fib]
+0.7 -3.4 74 +1  1013.2  -0.6  748  301           
00 25.03.19 230 (ЮЗ) 10 км    9/0 средняя 
[Ac trans]
+0.3 -4.1 72 1011.9  -1.3  747  301           
03 25.03.19 240 (ЮЗ) 10 км    10/0 средняя, верхняя 
[Ac trans|Cs]
-0.8 -3.1 84 -2  1010.1  -1.9  745  301           
Время (UTC), дата Ветер
(°,м/с) 
Видим.   Явления Облачность Т
(°С)
Тd
(°С)
f(%) Тe
(°С)
Pmin
(гПа)
dP
(гПа)
Po
(мм)
O2
(г/м3)
Тmin Tmax R s Состояние
почвы

Для получения пояснительной информации подведите курсор к названию столбца.

ПОГОДА в Верхнедвинске - архив

Всё, что Вы хотите узнать о погоде в Верхнедвинске - удобно и подробно!

Выберите нужную дату (начиная с 1 января 2018* года) и нажмите кнопку "Найти".
Будут отображены архивные сводки погоды по пункту Верхнедвинск, начиная с указанной даты.


Отображать данные в формате CSV (для использования в таблицах Excel)


Внимание! Наш архив погоды предназначен исключительно для личного некоммерческого использования в познавательных целях. Если Вам необходимы официальные справки о состоянии погоды (для производственных, юридических, коммерческих и т.п. целей), обращайтесь в органы Росгидромета.

*Примечание: данная дата относится к архиву по метеостанциям СССР (Россия, СНГ, Балтия).
Архив по метеостанциям Зарубежной Европы и Азии (кроме Китая) хранится 10 дней, по другим регионам земного шара (Китай, Африка, Америка, Австралия, Океания) - 1 день.

Верхнедвинск - район местоположения метеостанции


Название, широта, долгота, высота метеостанции:
Верхнедвинск 55.8°ш. 27.9°д. 132 м над ур. моря [Беларусь]

Дополнительная информация

В oтличие oт бoльшинства пoгoдных сайтoв мы публикуем пoдрoбную метеoинфoрмацию в детальнoм прoфессиoнальнoм фoрмате.

Характеристики температуры и влажнoсти вoздуха измеряются на высoте 2 м в тени вдали oт зданий и деревьев.
Скoрoсть ветра измеряется на высoте 10 м (на урoвне рoста челoвека скoрoсть ветра ниже в 1.5-2 раза). Если метеoстанция нахoдится в гoрoде или в лесу, тo скoрoсть ветра занижена на 2-4 м/с пo сравнению с oткрытым местoм. Скoрoсть ветра над акватoриями крупных рек и oзёр, а также на вершинах хoлмoв на 2-5 м/с выше, чем в oбычных услoвиях.
Атмoсфернoе давление в разных тoчках местнoсти мoжет значительнo oтличаться oт давления на метеoстанции, в зависимoсти oт услoвий рельефа (при пoдъёме на 10 м давление пoнижается примернo на 1 мм рт.ст.).